Regional Weather Roundup
Issued by NWS Green Bay, WI

Home | Current Version | Previous Version | Text Only | Print | Product List | Glossary On
Versions: 1 2 3 4 5 6 7 8 9 10 11 12 13 14 15 16 17 18 19 20 21 22 23 24 25 26 27 28 29 30 31 32 33 34 35 36 37 38 39 40 41 42 43 44 45 46 47 48 49 50
000
ASUS43 KGRB 231011
RWRGRB

NORTH-CENTRAL AND NORTHEAST WISCONSIN REGIONAL WEATHER ROUNDUP
NATIONAL WEATHER SERVICE GREEN BAY WI
500 AM CDT SAT MAY 23 2015

WIZ005-009-010>012-018-019-231100-
NORTH CENTRAL WISCONSIN

CITY           SKY/WX    TMP DP  RH WIND       PRES   REMARKS
IRONWOOD       CLEAR     54  34  47 SW9       30.19R
MANITOWISH WTR CLEAR     35  35 100 CALM      30.24R
ARBOR VITAE    CLEAR     39  35  84 CALM      30.25R
EAGLE RIVER    CLEAR     33  32  97 CALM      30.25R
LAND O LAKES   CLEAR     32  32 100 CALM      30.25R
RHINELANDER    CLEAR     38  33  82 CALM      30.26S
PHILLIPS       CLEAR     36  35  95 CALM      30.25S
ANTIGO         CLEAR     37  35  93 CALM      30.28R
TOMAHAWK       CLEAR     32  31  97 CALM      30.27R
MERRILL        CLEAR     33  33  99 CALM      30.28R
$$

WIZ013-073-231100-
NORTHEAST WISCONSIN

CITY           SKY/WX    TMP DP  RH WIND       PRES   REMARKS
IRON MOUNTAIN  CLEAR     33  28  81 CALM      30.23S
MARINETTE      CLEAR     45  34  65 W3        30.27R
OCONTO         CLEAR     33  33  99 CALM      30.27S
$$

WIZ017-030-035>037-045-231100-
CENTRAL WISCONSIN

CITY           SKY/WX    TMP DP  RH WIND       PRES   REMARKS
MEDFORD        CLEAR     41  36  81 CALM      30.26S
WAUSAU         CLEAR     42  38  85 E5        30.26R
MOSINEE        CLEAR     41  39  93 SE3       30.28R
MARSHFIELD     CLEAR     46  38  73 CALM      30.27R
WISC RAPIDS    CLEAR     47  34  60 S7        30.28S
STEVENS POINT  CLEAR     40  35  83 CALM      30.28S
WAUPACA        CLEAR     43  36  75 CALM      30.29S
SHAWANO        CLEAR     45  34  66 CALM      30.29R
CLINTONVILLE   CLEAR     37  34  87 CALM      30.29R
$$

WIZ038-039-048-051-231100-
FOX VALLEY

CITY           SKY/WX    TMP DP  RH WIND       PRES   REMARKS
NWS GREEN BAY  CLEAR     40  34  79 CALM      30.29R
APPLETON       CLEAR     43  30  61 CALM      30.29S
OSHKOSH        CLEAR     47  30  51 S3        30.29R
FOND DU LAC    CLEAR     47  29  49 SW7       30.29S
$$

WIZ022-050-052-231100-
EAST CENTRAL WISCONSIN

CITY           SKY/WX    TMP DP  RH WIND       PRES   REMARKS
STURGEON BAY   CLEAR     45  25  45 S6        30.30S
MANITOWOC      CLEAR     42  34  73 CALM      30.30R
SHEBOYGAN      CLEAR     42  30  62 S6        30.30R
$$

LMZ563-521-522-541>543-231100-
LAKESHORE

STATION/POSITION TIME  TEMP    WIND        PRES    VSBY  WAVE
                       AIR SEA DIR/SP/G                  HT/PER
                 (UTC) (F)     (DEG/KT/KT) (MB)    (MI)  (FT/S)
SHEBOYGAN LKSHOR 1000   50     200/  5/  5 1026.7R
KEWAUNEE LKSHORE 0900   41     300/  2/  4 1024.7R
NORTHPORT PIER   0900   47     180/  4/  9 1024.7R
N MID LAKE BUOY  0950   40 36  200/  8/ 10 1025.8R         0
SISTER BAY LKSHO 0917   49     170/  5/  8   N/A
CHAMBERS ISLAND  0940   48     190/  5/  9 1024.7S
MENOMINEE LKSHOR 0900   49     190/  6/  8 1025.3R
$$



USA.gov is the U.S. government's official web portal to all federal, state and local government web resources and services.